Location: Limerick
(52.6800°N, 8.6400°W)
Time: 03:31:32
(UTC+01:00)

Amateur Radio Satellites - All Passes

Search period start: 01 May 2017 03:01
Search period end: 02 May 2017 03:01
Location: Limerick, 52.6800°N, 8.6400°W

Satellite Date Start Highest point End Downlink Frequencies (MHz)
Time Altitude Azimuth
NANOSAT C BR1 01 May 03:03:02 03:06:10 21° 300° (WNW) 03:09:19 145.865
UKube-1 01 May 03:03:12 03:06:18 19° 269° (W) 03:09:25 .
AO-7 01 May 03:05:35 03:07:10 11° 77° (ENE) 03:08:45 .
ITUPSAT 1 01 May 03:09:37 03:14:19 63° 70° (ENE) 03:19:02 437.325
MOZHAYETS 4 01 May 03:16:30 03:20:43 38° 66° (ENE) 03:24:58
Oscar 19 01 May 03:22:58 03:28:14 80° 105° (ESE) 03:33:26 437.125/150
DUCHIFAT 1 01 May 03:31:00 03:33:12 14° 305° (NW) 03:35:22 145.980
EO-79 01 May 03:35:11 03:36:39 12° 308° (NW) 03:38:07 145.935-145.965
YUBILEINY 01 May 04:01:01 04:08:40 37° 83° (E) 04:16:22 435.215
Gurwin Techsat 1B 01 May 04:01:29 04:06:51 83° 287° (WNW) 04:12:10 435.225
BEESAT 01 May 04:03:46 04:08:21 46° 261° (W) 04:12:57 436.000
PCSat 01 May 04:09:23 04:14:39 48° 319° (NW) 04:19:56 145.827
BUGSAT 1 01 May 04:14:10 04:16:10 14° 305° (NW) 04:18:10 437.445
CUBESAT XI-V 01 May 04:19:58 04:24:08 33° 64° (ENE) 04:28:21 437.345
KKS-1 01 May 04:31:38 04:35:51 42° 66° (ENE) 04:40:05 437.445
ITUPSAT 1 01 May 04:48:59 04:52:35 21° 269° (W) 04:56:12 437.325
STARS 01 May 04:50:30 04:54:25 32° 63° (ENE) 04:58:19 437.465
MOZHAYETS 4 01 May 04:53:52 04:57:58 32° 265° (W) 05:02:05
AO-7 01 May 04:54:13 05:02:14 48° 100° (E) 05:10:12 .
ITAMSAT 1 01 May 04:58:56 05:04:04 59° 102° (ESE) 05:09:10 435.822/435.867
Oscar 19 01 May 05:03:08 05:07:01 22° 305° (NW) 05:10:53 437.125/150
RS-15 01 May 05:16:20 05:19:29 11° 87° (E) 05:22:38 29.354- 29.394
Gurwin Techsat 1B 01 May 05:42:32 05:46:04 18° 308° (NW) 05:49:37 435.225
PCSat 01 May 05:55:15 05:59:20 21° 343° (NNW) 06:03:25 145.827
M-CUBED/EXP-1 PRIME 01 May 05:55:41 05:58:14 15° 46° (NE) 06:00:45 437.505
YUBILEINY 01 May 05:56:23 06:05:00 66° 286° (WNW) 06:13:44 435.215
CUBESAT XI-V 01 May 05:57:04 06:01:27 39° 263° (W) 06:05:54 437.345
DOVE 4 01 May 06:06:14 06:07:42 11° 82° (E) 06:09:09 437.250
KKS-1 01 May 06:08:42 06:12:34 28° 265° (W) 06:16:27 437.445
STARS 01 May 06:26:36 06:30:42 37° 262° (W) 06:34:49 437.465
ITAMSAT 1 01 May 06:38:54 06:43:14 28° 302° (WNW) 06:47:33 435.822/435.867
XW-2F 01 May 06:39:54 06:41:37 13° 87° (E) 06:43:20 145.980 - 146.000
CUTE-I 01 May 06:41:40 06:44:59 16° 87° (E) 06:48:16 437.470
SO-50 01 May 06:44:16 06:48:42 49° 126° (SE) 06:53:07 436.795
AO-7 01 May 06:47:10 06:55:10 55° 303° (WNW) 07:03:12 .
STRAND 1 01 May 06:49:21 06:53:45 30° 60° (ENE) 06:58:10 437.568
RS-15 01 May 07:17:10 07:28:22 47° 112° (ESE) 07:39:48 29.354- 29.394
M-CUBED/EXP-1 PRIME 01 May 07:27:16 07:31:54 66° 65° (ENE) 07:36:29 437.505
XW-2D 01 May 07:31:26 07:35:06 42° 98° (E) 07:38:46 145.860 - 145.880
KAITUO 1B 01 May 07:36:30 07:40:05 38° 98° (E) 07:43:38 145.475/437.950
XW-2B 01 May 07:38:29 07:42:12 48° 99° (E) 07:45:56 145.730 - 145.750
PCSat 01 May 07:40:53 07:44:42 19° 10° (N) 07:48:31 145.827
DOVE 4 01 May 07:41:40 07:46:19 79° 103° (ESE) 07:50:40 437.250
XW-2C 01 May 07:50:35 07:54:25 67° 102° (ESE) 07:58:14 145.795 - 145.815
LilacSat-2 01 May 07:55:06 07:58:58 78° 104° (ESE) 08:02:50 437.200
YUBILEINY 01 May 07:57:45 08:03:53 21° 313° (NW) 08:10:05 435.215
ISS 01 May 08:02:36 08:04:50 17° 144° (SE) 08:07:04 437.550
NUDT-PHONESAT 01 May 08:09:04 08:12:49 84° 103° (ESE) 08:16:34 437.300
XW-2F 01 May 08:12:27 08:16:16 76° 286° (WNW) 08:20:05 145.980 - 146.000
CUTE-I 01 May 08:20:27 08:25:49 89° 107° (ESE) 08:31:08 437.470
SO-50 01 May 08:25:00 08:29:19 39° 327° (NNW) 08:33:36 436.795
STRAND 1 01 May 08:27:47 08:32:45 51° 260° (W) 08:37:44 437.568
HO-68 01 May 08:34:00 08:40:41 39° 96° (E) 08:47:19 435.675
XW-2A 01 May 08:36:10 08:39:09 28° 96° (E) 08:42:07 145.665 - 145.685
Tancredo 1 01 May 08:38:34 08:41:20 30° 154° (SSE) 08:44:08 437.200
AO-7 01 May 08:40:40 08:46:19 21° 327° (NNW) 08:51:58 .
UWE-3 01 May 08:41:53 08:43:52 13° 87° (E) 08:45:50 435.000/436.395/437.385
CUTE 1.7 + AOD 2 01 May 08:43:56 08:47:59 39° 97° (E) 08:52:02 437.475
SEEDS 01 May 08:54:37 08:58:32 34° 96° (E) 09:02:26 437.485
M-CUBED/EXP-1 PRIME 01 May 09:03:06 09:06:40 21° 263° (W) 09:10:14 437.505
CUBEBUG 2 01 May 09:04:10 09:07:55 30° 95° (E) 09:11:40 437.445
XW-2D 01 May 09:06:05 09:09:05 22° 297° (WNW) 09:12:06 145.860 - 145.880
PRISM 01 May 09:10:12 09:13:32 23° 61° (ENE) 09:16:52 437.425
KAITUO 1B 01 May 09:10:51 09:13:56 24° 296° (WNW) 09:17:02 145.475/437.950
XW-2B 01 May 09:13:17 09:16:08 20° 298° (WNW) 09:18:59 145.730 - 145.750
TIGRISAT 01 May 09:15:14 09:18:04 17° 57° (ENE) 09:20:53 435.000
DOVE 4 01 May 09:20:22 09:23:25 18° 305° (NW) 09:26:22 437.250
O/OREOS (USA 219) 01 May 09:23:52 09:26:09 14° 98° (E) 09:28:27 437.305
PCSat 01 May 09:24:39 09:29:41 36° 35° (NE) 09:34:40 145.827
ZACube-1 01 May 09:25:16 09:28:28 20° 91° (E) 09:31:42 437.345
XW-2C 01 May 09:25:49 09:28:12 16° 301° (WNW) 09:30:35 145.795 - 145.815
RS-15 01 May 09:28:01 09:40:19 77° 319° (NW) 09:52:47 29.354- 29.394
AO-73 01 May 09:29:10 09:32:22 20° 91° (E) 09:35:36 145.935
LilacSat-2 01 May 09:30:37 09:32:45 14° 302° (WNW) 09:34:53 437.200
UNISAT 6 01 May 09:36:58 09:40:36 27° 63° (ENE) 09:44:13 437.425
ISS 01 May 09:37:39 09:40:51 52° 163° (SSE) 09:44:02 437.550
Oscar 11 01 May 09:38:39 09:42:02 22° 91° (E) 09:45:25 .
NUDT-PHONESAT 01 May 09:44:28 09:46:12 13° 303° (WNW) 09:47:56 437.300
FO-29 01 May 09:46:25 09:51:34 35° 62° (ENE) 09:56:21 435.910
AAUSAT CUBESAT 2 01 May 09:47:36 09:51:47 57° 101° (E) 09:55:54 437.432
XW-2F 01 May 09:48:42 09:49:44 11° 305° (NW) 09:50:46 145.980 - 146.000
CUTE-I 01 May 10:01:26 10:05:14 20° 307° (NW) 10:09:01 437.470
SO-50 01 May 10:07:34 10:10:54 19° 350° (N) 10:14:13 436.795
XW-2A 01 May 10:09:02 10:11:51 25° 295° (WNW) 10:14:39 145.665 - 145.685
Tancredo 1 01 May 10:13:54 10:16:59 70° 173° (S) 10:20:05 437.200
UWE-3 01 May 10:16:42 10:20:56 86° 284° (WNW) 10:25:13 435.000/436.395/437.385
CUTE 1.7 + AOD 2 01 May 10:20:00 10:23:44 29° 296° (WNW) 10:27:28 437.475
HO-68 01 May 10:21:41 10:28:43 58° 297° (WNW) 10:35:44 435.675
POLYITAN 1 01 May 10:29:01 10:29:35 10° 51° (NE) 10:30:08 437.675
SEEDS 01 May 10:30:23 10:34:13 33° 295° (WNW) 10:38:02 437.485
AO-7 01 May 10:33:37 10:36:01 12° 354° (N) 10:38:26 .
QB50P2 01 May 10:34:38 10:36:22 12° 53° (NE) 10:38:05 145.880/145.840
CUBEBUG 2 01 May 10:40:48 10:44:35 34° 294° (WNW) 10:48:25 437.445
PRISM 01 May 10:44:31 10:48:34 49° 260° (W) 10:52:39 437.425
AIST 2D 01 May 10:48:11 10:50:33 17° 62° (ENE) 10:52:56 435.315
OBJECT BX 01 May 10:49:42 10:52:44 24° 94° (E) 10:55:45 145.990 - 145.960
TIGRISAT 01 May 10:49:59 10:54:17 74° 257° (WSW) 10:58:35 435.000
NANOSAT C BR1 01 May 10:50:48 10:53:06 15° 55° (NE) 10:55:23 145.865
O/OREOS (USA 219) 01 May 11:00:14 11:04:51 86° 116° (ESE) 11:09:29 437.305
ZACube-1 01 May 11:00:56 11:05:04 54° 289° (WNW) 11:09:16 437.345
AO-73 01 May 11:04:47 11:08:55 54° 290° (WNW) 11:13:07 145.935
PCSat 01 May 11:08:03 11:13:27 66° 237° (WSW) 11:18:49 145.827
UNISAT 6 01 May 11:13:04 11:17:11 42° 262° (W) 11:21:17 437.425
ISS 01 May 11:13:57 11:17:13 75° 183° (S) 11:20:29 437.550
Oscar 11 01 May 11:14:13 11:18:29 53° 290° (WNW) 11:22:43 .
DUCHIFAT 1 01 May 11:16:45 11:19:55 21° 60° (ENE) 11:23:05 145.980
EO-79 01 May 11:20:22 11:23:52 26° 62° (ENE) 11:27:23 145.935-145.965
DELFI C3 01 May 11:21:54 11:25:55 67° 102° (ESE) 11:29:53 145.870
AAUSAT CUBESAT 2 01 May 11:23:45 11:26:54 21° 300° (WNW) 11:30:02 437.432
FO-29 01 May 11:30:59 11:36:38 47° 261° (W) 11:41:49 435.910
LO-87 01 May 11:37:52 11:39:38 13° 88° (E) 11:41:23 145.935 - 145.965
RS-15 01 May 11:43:00 11:54:54 49° 350° (N) 12:06:43 29.354- 29.394
ESTCUBE 1 01 May 11:48:50 11:50:58 13° 86° (E) 11:53:07 437.505/2401.250
SO-50 01 May 11:49:21 11:52:51 21° 15° (NNE) 11:56:19 436.795
Tancredo 1 01 May 11:49:43 11:52:46 58° 193° (SSW) 11:55:49 437.200
UWE-3 01 May 11:54:38 11:56:47 14° 305° (NW) 11:58:57 435.000/436.395/437.385
BUGSAT 1 01 May 11:58:28 12:01:26 20° 60° (ENE) 12:04:24 437.445
POLYITAN 1 01 May 12:00:24 12:04:32 59° 70° (ENE) 12:08:40 437.675
QB50P2 01 May 12:07:14 12:11:25 73° 74° (ENE) 12:15:39 145.880/145.840
HO-68 01 May 12:10:28 12:15:06 19° 320° (NW) 12:19:44 435.675
Gurwin Techsat 1B 01 May 12:13:18 12:15:19 12° 45° (NE) 12:17:21 435.225
AIST 2D 01 May 12:20:06 12:23:29 47° 261° (W) 12:26:53 435.315
AO-7 01 May 12:21:19 12:25:24 15° 21° (NNE) 12:29:30 .
OBJECT BX 01 May 12:23:08 12:26:31 35° 292° (WNW) 12:29:53 145.990 - 145.960
NANOSAT C BR1 01 May 12:24:00 12:28:13 89° 94° (E) 12:32:26 145.865
AO-85 01 May 12:24:36 12:28:14 29° 121° (ESE) 12:31:45 145.980
O/OREOS (USA 219) 01 May 12:41:23 12:44:53 21° 320° (NW) 12:48:24 437.305
ISS 01 May 12:50:27 12:53:32 38° 203° (SSW) 12:56:36 437.550
DUCHIFAT 1 01 May 12:51:10 12:55:17 55° 259° (W) 12:59:24 145.980
PCSat 01 May 12:53:26 12:55:51 13° 257° (WSW) 12:58:16 145.827
EO-79 01 May 12:55:28 12:59:29 42° 261° (W) 13:03:31 145.935-145.965
DELFI C3 01 May 12:57:37 13:00:15 17° 302° (WNW) 13:02:53 145.870
Oscar 19 01 May 13:07:06 13:11:51 38° 63° (ENE) 13:16:38 437.125/150
LO-87 01 May 13:09:56 13:13:30 63° 287° (WNW) 13:17:00 145.935 - 145.965
BEESAT 3 01 May 13:10:13 13:13:07 20° 116° (ESE) 13:16:02 437.485
50 SAT 01 May 13:12:04 13:13:13 11° 88° (E) 13:14:24 437.505
VELOX 1 01 May 13:15:15 13:18:55 25° 93° (E) 13:22:32 145.980
BEESAT 2 01 May 13:22:40 13:23:52 11° 110° (ESE) 13:25:04 435.950
ESTCUBE 1 01 May 13:23:54 13:28:30 86° 106° (ESE) 13:33:03 437.505/2401.250
Tancredo 1 01 May 13:25:53 13:28:15 20° 212° (SSW) 13:30:37 437.200
SO-50 01 May 13:29:49 13:34:15 51° 38° (NE) 13:38:39 436.795
BUGSAT 1 01 May 13:32:25 13:36:27 58° 258° (WSW) 13:40:30 437.445
POLYITAN 1 01 May 13:37:43 13:40:42 19° 270° (W) 13:43:40 437.675
SPROUT 01 May 13:38:58 13:42:58 38° 97° (E) 13:46:56 437.525
QB50P2 01 May 13:45:14 13:47:44 15° 272° (W) 13:50:14 145.880/145.840
Gurwin Techsat 1B 01 May 13:49:01 13:54:09 51° 66° (ENE) 13:59:18 435.225
DX 1 01 May 13:50:30 13:53:56 22° 92° (E) 13:57:21 434.975-435.025
RS-15 01 May 13:58:08 14:10:19 55° 23° (NNE) 14:22:06 29.354- 29.394
YUBILEINY 01 May 14:02:19 14:09:34 28° 54° (NE) 14:16:49 435.215
NANOSAT C BR1 01 May 14:02:50 14:04:34 12° 274° (W) 14:06:19 145.865
AO-85 01 May 14:04:30 14:08:29 48° 321° (NW) 14:12:21 145.980
AO-7 01 May 14:08:39 14:15:49 34° 47° (NE) 14:23:00 .
ISS 01 May 14:28:26 14:29:21 11° 221° (SW) 14:30:16 437.550
UKube-1 01 May 14:42:30 14:46:42 47° 100° (E) 14:50:52 .
50 SAT 01 May 14:43:08 14:46:38 72° 287° (WNW) 14:50:05 437.505
ITAMSAT 1 01 May 14:44:27 14:48:56 31° 60° (ENE) 14:53:26 435.822/435.867
Oscar 19 01 May 14:46:18 14:51:10 41° 263° (W) 14:56:05 437.125/150
BEESAT 3 01 May 14:46:19 14:50:18 69° 316° (NW) 14:54:20 437.485
VELOX 1 01 May 14:51:19 14:55:36 47° 292° (WNW) 14:59:50 145.980
BEESAT 2 01 May 14:56:54 15:00:53 71° 130° (SE) 15:04:56 435.950
ESTCUBE 1 01 May 15:01:48 15:04:43 17° 305° (NW) 15:07:37 437.505/2401.250
ITUPSAT 1 01 May 15:06:58 15:07:37 10° 83° (E) 15:08:14 437.325
SO-50 01 May 15:10:31 15:14:36 33° 239° (WSW) 15:18:38 436.795
SPROUT 01 May 15:15:06 15:18:47 29° 297° (WNW) 15:22:28 437.525
DX 1 01 May 15:26:10 15:30:25 52° 292° (WNW) 15:34:38 434.975-435.025
Gurwin Techsat 1B 01 May 15:29:40 15:34:21 31° 266° (W) 15:39:03 435.225
AO-85 01 May 15:46:59 15:49:44 18° 344° (NNW) 15:52:28 145.980
BEESAT 01 May 15:57:43 16:01:53 29° 94° (E) 16:06:01 436.000
YUBILEINY 01 May 15:58:55 16:07:45 88° 79° (E) 16:16:35 435.215
AO-7 01 May 15:59:37 16:07:55 82° 250° (WSW) 16:16:17 .
RS-15 01 May 16:11:33 16:23:54 80° 233° (SW) 16:35:42 29.354- 29.394
UKube-1 01 May 16:18:57 16:22:31 26° 299° (WNW) 16:26:04 .
ITAMSAT 1 01 May 16:23:09 16:28:13 52° 260° (W) 16:33:18 435.822/435.867
BEESAT 3 01 May 16:25:27 16:28:34 21° 338° (NNW) 16:31:41 437.485
CUTE-I 01 May 16:33:20 16:34:57 11° 44° (NE) 16:36:34 437.470
BEESAT 2 01 May 16:35:32 16:39:01 27° 331° (NNW) 16:42:33 435.950
ITUPSAT 1 01 May 16:41:36 16:46:24 65° 103° (ESE) 16:51:09 437.325
MOZHAYETS 4 01 May 16:42:05 16:46:26 39° 97° (E) 16:50:46
XW-2C 01 May 17:06:35 17:07:27 11° 54° (NE) 17:08:20 145.795 - 145.815
LilacSat-2 01 May 17:10:50 17:12:25 12° 56° (NE) 17:13:59 437.200
DOVE 4 01 May 17:15:23 17:19:44 27° 61° (ENE) 17:23:56 437.250
NUDT-PHONESAT 01 May 17:22:37 17:24:04 12° 56° (NE) 17:25:30 437.300
HO-68 01 May 17:24:54 17:29:14 17° 38° (NE) 17:33:35 435.675
XW-2F 01 May 17:26:28 17:28:43 15° 59° (ENE) 17:30:59 145.980 - 146.000
AO-85 01 May 17:29:10 17:31:34 15° 9° (N) 17:33:58 145.980
BEESAT 01 May 17:35:17 17:39:50 46° 294° (WNW) 17:44:24 436.000
O/OREOS (USA 219) 01 May 17:46:33 17:49:38 17° 37° (NE) 17:52:42 437.305
CUBESAT XI-V 01 May 17:47:11 17:51:32 35° 95° (E) 17:55:50 437.345
KKS-1 01 May 17:52:49 17:56:56 36° 97° (E) 18:01:01 437.445
AO-7 01 May 17:55:47 18:01:59 23° 272° (W) 18:08:13 .
YUBILEINY 01 May 17:56:41 18:03:30 26° 283° (WNW) 18:10:20 435.215
BEESAT 3 01 May 18:05:11 18:07:31 15° 2° (N) 18:09:51 437.485
CUTE-I 01 May 18:08:44 18:13:49 47° 65° (ENE) 18:18:54 437.470
STARS 01 May 18:09:48 18:13:27 25° 94° (E) 18:17:05 437.465
CUTE 1.7 + AOD 2 01 May 18:10:41 18:11:06 10° 51° (NE) 18:11:31 437.475
BEESAT 2 01 May 18:15:35 18:18:01 15° 355° (N) 18:20:27 435.950
XW-2D 01 May 18:18:05 18:21:43 48° 70° (ENE) 18:25:22 145.860 - 145.880
MOZHAYETS 4 01 May 18:19:25 18:23:32 33° 296° (WNW) 18:27:39
ITUPSAT 1 01 May 18:20:07 18:23:50 23° 303° (WNW) 18:27:33 437.325
KAITUO 1B 01 May 18:21:59 18:25:29 42° 69° (ENE) 18:29:02 145.475/437.950
RS-15 01 May 18:24:58 18:34:33 29° 259° (WSW) 18:43:49 29.354- 29.394
XW-2B 01 May 18:25:07 18:28:47 55° 72° (ENE) 18:32:30 145.730 - 145.750
XW-2C 01 May 18:37:14 18:40:58 76° 74° (ENE) 18:44:45 145.795 - 145.815
LilacSat-2 01 May 18:42:19 18:46:05 89° 78° (ENE) 18:49:55 437.200
DOVE 4 01 May 18:51:58 18:57:08 59° 260° (W) 19:02:09 437.250
NUDT-PHONESAT 01 May 18:53:44 18:57:24 90° 270° (W) 19:01:06 437.300
XW-2F 01 May 18:58:43 19:02:25 67° 257° (WSW) 19:06:11 145.980 - 146.000
HO-68 01 May 19:08:37 19:15:30 53° 61° (ENE) 19:22:27 435.675
AO-85 01 May 19:09:30 19:13:04 32° 33° (NNE) 19:16:42 145.980
AAUSAT CUBESAT 2 01 May 19:10:25 19:12:20 13° 55° (NE) 19:14:18 437.432
XW-2A 01 May 19:13:09 19:15:59 26° 66° (ENE) 19:18:50 145.665 - 145.685
NO-84 01 May 19:24:28 19:27:45 30° 144° (SE) 19:30:47 435.350 FM
CUBESAT XI-V 01 May 19:24:34 19:28:56 38° 295° (WNW) 19:33:16 437.345
O/OREOS (USA 219) 01 May 19:25:16 19:29:53 73° 58° (ENE) 19:34:26 437.305
KKS-1 01 May 19:29:29 19:33:28 33° 297° (WNW) 19:37:27 437.445
CUTE 1.7 + AOD 2 01 May 19:41:54 19:46:03 57° 71° (ENE) 19:50:16 437.475
BEESAT 3 01 May 19:43:07 19:46:25 23° 25° (NNE) 19:49:42 437.485
UWE-3 01 May 19:44:05 19:47:19 22° 61° (ENE) 19:50:32 435.000/436.395/437.385
STARS 01 May 19:45:49 19:50:00 45° 293° (WNW) 19:54:09 437.465
CUTE-I 01 May 19:49:13 19:54:02 34° 265° (W) 19:58:52 437.470
SEEDS 01 May 19:51:35 19:55:38 49° 69° (ENE) 19:59:44 437.485
XW-2D 01 May 19:53:31 19:56:11 18° 269° (W) 19:58:52 145.860 - 145.880
BEESAT 2 01 May 19:54:14 19:57:12 19° 19° (NNE) 20:00:10 435.950
KAITUO 1B 01 May 19:56:53 19:59:42 20° 268° (W) 20:02:33 145.475/437.950
XW-2B 01 May 20:00:55 20:03:20 16° 270° (W) 20:05:46 145.730 - 145.750
CUBEBUG 2 01 May 20:07:42 20:11:50 52° 70° (ENE) 20:15:54 437.445
XW-2C 01 May 20:14:06 20:15:41 12° 273° (W) 20:17:17 145.795 - 145.815
LilacSat-2 01 May 20:20:12 20:20:59 10° 274° (W) 20:21:47 437.200
ZACube-1 01 May 20:26:33 20:30:15 32° 65° (ENE) 20:33:57 437.345
AO-73 01 May 20:30:09 20:33:49 32° 65° (ENE) 20:37:30 145.935
STRAND 1 01 May 20:32:02 20:36:43 35° 96° (E) 20:41:23 437.568
DOVE 4 01 May 20:35:34 20:35:48 10° 279° (W) 20:36:03 437.250
M-CUBED/EXP-1 PRIME 01 May 20:35:59 20:38:43 17° 94° (E) 20:41:18 437.505
Oscar 11 01 May 20:38:46 20:42:39 34° 65° (ENE) 20:46:35 .
DELFI C3 01 May 20:40:30 20:42:23 13° 55° (NE) 20:44:16 145.870
AAUSAT CUBESAT 2 01 May 20:42:58 20:47:07 80° 75° (ENE) 20:51:20 437.432
XW-2A 01 May 20:45:50 20:48:42 26° 264° (W) 20:51:37 145.665 - 145.685
AO-85 01 May 20:49:47 20:53:37 50° 233° (SW) 20:57:34 145.980
HO-68 01 May 20:56:43 21:03:26 42° 263° (W) 21:10:13 435.675
NO-84 01 May 21:01:33 21:05:06 81° 340° (NNW) 21:08:22 435.350 FM
O/OREOS (USA 219) 01 May 21:05:40 21:08:46 18° 259° (W) 21:11:50 437.305
CUTE 1.7 + AOD 2 01 May 21:19:10 21:22:15 19° 270° (W) 21:25:22 437.475
UWE-3 01 May 21:19:26 21:23:32 51° 261° (W) 21:27:35 435.000/436.395/437.385
BEESAT 3 01 May 21:20:29 21:24:33 85° 44° (NE) 21:28:35 437.485
SEEDS 01 May 21:28:16 21:31:35 22° 269° (W) 21:34:56 437.485
BEESAT 2 01 May 21:31:46 21:35:47 53° 41° (NE) 21:39:46 435.950
OBJECT BX 01 May 21:33:06 21:36:09 26° 65° (ENE) 21:39:14 145.990 - 145.960
CUBEBUG 2 01 May 21:45:33 21:48:45 21° 269° (W) 21:51:56 437.445
ZACube-1 01 May 22:02:47 22:06:32 32° 264° (W) 22:10:18 437.345
AO-73 01 May 22:06:19 22:10:03 33° 264° (W) 22:13:49 145.935
M-CUBED/EXP-1 PRIME 01 May 22:09:29 22:13:39 63° 295° (WNW) 22:17:27 437.505
STRAND 1 01 May 22:11:12 22:16:00 42° 296° (WNW) 22:20:48 437.568
DELFI C3 01 May 22:12:32 22:16:32 85° 75° (ENE) 22:20:35 145.870
Oscar 11 01 May 22:14:54 22:18:48 33° 265° (W) 22:22:45 .
LO-87 01 May 22:19:38 22:21:48 15° 59° (ENE) 22:23:58 145.935 - 145.965
PRISM 01 May 22:20:47 22:23:17 15° 89° (E) 22:25:47 437.425
AAUSAT CUBESAT 2 01 May 22:20:58 22:23:10 14° 273° (W) 22:25:21 437.432
FO-29 01 May 22:33:44 22:36:46 15° 87° (E) 22:39:53 435.910
TIGRISAT 01 May 22:36:19 22:38:49 15° 88° (E) 22:41:20 435.000
NO-84 01 May 22:39:31 22:42:50 54° 3° (N) 22:45:52 435.350 FM
ESTCUBE 1 01 May 22:53:16 22:56:57 25° 60° (ENE) 23:00:40 437.505/2401.250
UNISAT 6 01 May 22:58:29 23:02:04 25° 93° (E) 23:05:41 437.425
BEESAT 3 01 May 22:59:10 23:01:36 16° 246° (WSW) 23:04:01 437.485
SPROUT 01 May 23:05:35 23:06:43 11° 51° (NE) 23:07:50 437.525
OBJECT BX 01 May 23:06:28 23:09:45 32° 263° (W) 23:13:06 145.990 - 145.960
BEESAT 2 01 May 23:09:54 23:13:21 27° 241° (WSW) 23:16:45 435.950
M-CUBED/EXP-1 PRIME 01 May 23:45:31 23:47:13 12° 317° (NW) 23:48:52 437.505
DELFI C3 01 May 23:50:18 23:51:55 12° 274° (W) 23:53:34 145.870
50 SAT 01 May 23:50:21 23:52:02 13° 58° (ENE) 23:53:45 437.505
LO-87 01 May 23:51:14 23:54:50 63° 258° (WSW) 23:58:27 145.935 - 145.965
PRISM 01 May 23:54:54 23:59:04 70° 288° (WNW) 00:03:10 437.425
UKube-1 02 May 00:08:47 00:11:12 15° 54° (NE) 00:13:37 .
TIGRISAT 02 May 00:11:45 00:16:02 76° 287° (WNW) 00:20:23 435.000
NO-84 02 May 00:17:16 00:20:27 73° 206° (SSW) 00:23:24 435.350 FM
FO-29 02 May 00:17:26 00:22:41 87° 106° (ESE) 00:28:17 435.910
VELOX 1 02 May 00:17:41 00:21:56 45° 67° (ENE) 00:26:12 145.980
ESTCUBE 1 02 May 00:29:05 00:33:29 52° 260° (W) 00:37:58 437.505/2401.250
DUCHIFAT 1 02 May 00:30:00 00:32:34 16° 89° (E) 00:35:08 145.980
EO-79 02 May 00:34:22 00:37:32 20° 91° (E) 00:40:41 145.935-145.965
UNISAT 6 02 May 00:34:53 00:38:59 44° 292° (WNW) 00:43:07 437.425
SPROUT 02 May 00:37:35 00:41:48 62° 71° (ENE) 00:46:02 437.525
DX 1 02 May 00:51:10 00:55:17 41° 66° (ENE) 00:59:25 434.975-435.025
BUGSAT 1 02 May 01:09:27 01:11:23 13° 88° (E) 01:13:19 437.445
AIST 2D 02 May 01:12:13 01:15:47 89° 105° (ESE) 01:19:20 435.315
POLYITAN 1 02 May 01:14:48 01:18:53 47° 99° (E) 01:22:57 437.675
50 SAT 02 May 01:21:00 01:24:29 74° 257° (WSW) 01:28:01 437.505
QB50P2 02 May 01:21:42 01:25:53 59° 102° (ESE) 01:30:03 145.880/145.840
PRISM 02 May 01:32:03 01:33:36 12° 308° (NW) 01:35:08 437.425
BEESAT 02 May 01:35:10 01:37:19 13° 50° (NE) 01:39:29 436.000
NANOSAT C BR1 02 May 01:37:51 01:42:03 73° 104° (ESE) 01:46:14 145.865
UKube-1 02 May 01:42:15 01:46:35 85° 76° (ENE) 01:50:58 .
TIGRISAT 02 May 01:50:05 01:52:03 13° 306° (NW) 01:54:01 435.000
VELOX 1 02 May 01:54:48 01:58:34 26° 266° (W) 02:02:21 145.980
NO-84 02 May 01:55:38 01:57:26 15° 224° (SW) 01:59:11 435.350 FM
PCSat 02 May 01:55:39 02:00:28 33° 114° (ESE) 02:05:19 145.827
Gurwin Techsat 1B 02 May 02:00:56 02:03:03 12° 83° (E) 02:05:10 435.225
FO-29 02 May 02:03:38 02:07:16 19° 306° (NW) 02:11:00 435.910
DUCHIFAT 1 02 May 02:04:33 02:08:44 70° 287° (WNW) 02:12:53 145.980
EO-79 02 May 02:09:30 02:13:37 53° 290° (WNW) 02:17:42 145.935-145.965
SPROUT 02 May 02:15:10 02:18:07 18° 270° (W) 02:21:05 437.525
MOZHAYETS 4 02 May 02:15:18 02:17:34 14° 52° (NE) 02:19:49
ITUPSAT 1 02 May 02:17:30 02:21:22 25° 59° (ENE) 02:25:15 437.325
DX 1 02 May 02:27:47 02:31:36 28° 265° (W) 02:35:26 434.975-435.025
BUGSAT 1 02 May 02:43:17 02:47:19 79° 287° (WNW) 02:51:19 437.445
AIST 2D 02 May 02:47:17 02:48:26 11° 303° (WNW) 02:49:35 435.315
POLYITAN 1 02 May 02:51:03 02:54:27 24° 299° (WNW) 02:57:50 437.675
Oscar 19 02 May 02:51:15 02:56:18 46° 99° (E) 03:01:17 437.125/150
